[[{"header":{"parameterUnit":"m.s-1","parameterCategory":1,"la1":30.2991,"la2":30.254,"lo1":-89.0895,"lo2":-89.0444,"dy":0.0017,"dx":0.0017,"nx":28,"ny":28,"refTime":"2025-03-22T03:00:00:Z","depth":0,"parameterNumber":2,"parameterNumberName":"U-component_of_WINDS"},"data":[0,0,0,0,0,0,0,0,0,0,0,0,0,0,0,0,0,0,0,0,0,0,0,0,0,0,0,0,0,0,0,0,0,0,0,0,0,0,0,0,0,0,0,0,0,0,0,0,0,0,0,0,0,0,0,0,0,0,-1.7822,-1.7822,0,-1.7783,-1.7783,-1.7782,-1.7762,-1.7762,-1.7762,-1.7762,-1.7721,-1.772,-1.7719,0,0,0,0,0,0,0,0,0,0,0,0,0,-1.7878,-1.7877,-1.7822,-1.7822,-1.7821,-1.7783,-1.7783,-1.7782,-1.7762,-1.7762,-1.7762,-1.7762,-1.7721,-1.772,-1.7719,0,0,0,0,0,0,0,0,0,0,0,0,0,-1.7848,-1.7877,-1.7822,-1.7807,-1.7805,-1.7783,-1.7783,-1.7782,-1.7762,-1.7762,-1.7762,-1.7762,-1.7722,-1.772,-1.7718,-1.7709,0,0,-1.7713,-1.7713,0,0,0,0,0,0,0,0,-1.7849,-1.7846,-1.7809,-1.7808,-1.7806,-1.7777,-1.7787,-1.7757,-1.7762,-1.7778,-1.7762,-1.7762,-1.774,-1.7736,-1.7729,-1.7707,-1.7705,-1.7713,-1.7712,-1.7712,-1.7711,0,0,0,0,0,0,0,-1.7852,-1.7847,-1.7807,-1.7809,-1.7807,-1.7801,-1.7797,-1.7781,-1.7759,-1.7777,-1.7775,-1.7771,-1.7738,-1.7731,-1.7728,-1.7704,-1.7713,-1.7712,-1.7711,-1.771,-1.7672,-1.7671,0,0,0,0,0,0,-1.7856,-1.7849,-1.7808,-1.7805,-1.7828,-1.78,-1.7795,-1.7786,-1.776,-1.7756,-1.7771,-1.777,-1.7734,-1.773,-1.7726,-1.7713,-1.7712,-1.771,-1.7709,-1.7672,-1.7672,-1.7671,0,0,0,0,0,0,-1.7858,-1.7853,-1.7809,-1.7827,-1.7821,-1.7799,-1.7789,-1.7786,-1.7778,-1.7755,-1.7751,-1.7767,-1.7733,-1.7729,-1.7713,-1.7711,-1.7709,-1.7708,-1.7672,-1.7672,-1.7671,-1.7686,0,0,0,0,0,0,-1.7859,-1.7853,-1.785,-1.7827,-1.782,-1.7797,-1.7789,-1.7785,-1.7775,-1.7774,-1.7751,-1.7747,-1.7733,-1.7716,-1.7712,-1.7709,-1.7707,-1.7672,-1.7672,-1.7672,-1.7686,-1.7687,-1.7688,0,0,0,0,0,-1.7861,-1.7855,-1.785,-1.7845,-1.7815,-1.7797,-1.7793,-1.7778,-1.7775,-1.7771,-1.7757,-1.7747,-1.7712,-1.7714,-1.771,-1.7706,-1.7672,-1.7672,-1.7672,-1.7686,-1.7687,-1.7688,0,0,0,0,0,0,-1.7879,-1.7852,-1.7846,-1.7832,-1.7817,-1.7794,-1.7788,-1.778,-1.7765,-1.7764,-1.7745,-1.774,-1.7726,-1.7715,-1.7718,-1.7695,-1.7691,-1.769,-1.7703,-1.7704,-1.7705,-1.7708,-1.7705,0,0,0,0,0,-1.7881,-1.7869,-1.7846,-1.7837,-1.7829,-1.781,-1.7802,-1.7792,-1.7775,-1.7768,-1.7753,-1.7736,-1.7722,-1.7712,-1.7698,-1.7684,-1.7679,-1.768,-1.768,-1.7681,-1.768,-1.7672,-1.7672,-1.7671,-1.7671,-1.7671,0,0,-1.7885,-1.7869,-1.7863,-1.784,-1.7827,-1.7814,-1.7805,-1.7792,-1.7783,-1.7766,-1.7751,-1.7739,-1.7719,-1.7705,-1.7697,-1.7695,-1.7679,-1.7681,-1.7682,-1.7681,-1.7672,-1.7672,-1.7672,-1.7671,-1.7671,-1.7671,0,0,-1.7887,-1.7874,-1.7864,-1.7852,-1.7832,-1.782,-1.7817,-1.7795,-1.7787,-1.7771,-1.7758,-1.7746,-1.7721,-1.7708,-1.7698,-1.7694,-1.7685,-1.769,-1.7694,-1.7686,-1.7686,-1.7686,-1.7684,-1.7684,-1.7689,-1.7689,-1.7689,0,-1.7895,-1.7876,-1.786,-1.7848,-1.7838,-1.7823,-1.7813,-1.7801,-1.7778,-1.7771,-1.7768,-1.7736,-1.7722,-1.7704,-1.7703,-1.7696,-1.7692,-1.7692,-1.7687,-1.7687,-1.7687,-1.7685,-1.7685,-1.769,-1.769,-1.769,-1.769,0,-1.7886,-1.7873,-1.7868,-1.7846,-1.7835,-1.7824,-1.7806,-1.7797,-1.7788,-1.7775,-1.7759,-1.7741,-1.7723,-1.7718,-1.7708,-1.7698,-1.7697,-1.7691,-1.7686,-1.7688,-1.7686,-1.7685,-1.7691,-1.7691,-1.7691,-1.769,0,0,-1.7898,-1.7867,-1.7866,-1.7855,-1.7833,-1.7822,-1.781,-1.7792,-1.7784,-1.7769,-1.7758,-1.7737,-1.7731,-1.772,-1.7709,-1.7702,-1.77,-1.7697,-1.7696,-1.7698,-1.7687,-1.7691,-1.7691,-1.7694,-1.7693,-1.7693,-1.7688,0,-1.7896,-1.7874,-1.7859,-1.7843,-1.783,-1.7816,-1.7805,-1.779,-1.7778,-1.7765,-1.7751,-1.7737,-1.7731,-1.7724,-1.7716,-1.7702,-1.7697,-1.7702,-1.7683,-1.7682,-1.7688,-1.769,-1.7694,-1.769,-1.7688,-1.7687,-1.7687,0,-1.7891,-1.7876,-1.7858,-1.7837,-1.7831,-1.7822,-1.7804,-1.7792,-1.7774,-1.7766,-1.7753,-1.7742,-1.7728,-1.7725,-1.7705,-1.7708,-1.77,-1.7691,-1.7691,-1.7688,-1.7685,-1.7687,-1.7689,-1.7688,-1.7686,-1.7686,-1.7686,0,-1.79,-1.7876,-1.7862,-1.7854,-1.7828,-1.7822,-1.7811,-1.7793,-1.7783,-1.7768,-1.7761,-1.7744,-1.7734,-1.7721,-1.7705,-1.7704,-1.7687,-1.7682,-1.7679,-1.7679,-1.7675,-1.7676,-1.7676,-1.767,-1.767,-1.767,-1.7671,0,-1.79,-1.7889,-1.7866,-1.7857,-1.7845,-1.7828,-1.7817,-1.7804,-1.7789,-1.7777,-1.7763,-1.7753,-1.7733,-1.7719,-1.7707,-1.7692,-1.7688,-1.768,-1.7677,-1.7681,-1.7682,-1.7675,-1.7675,-1.767,-1.767,-1.767,-1.767,0,-1.7908,-1.7892,-1.7876,-1.7853,-1.7847,-1.7839,-1.782,-1.781,-1.7798,-1.7783,-1.7779,-1.7759,-1.7742,-1.7725,-1.7703,-1.7694,-1.768,-1.7676,-1.7686,-1.7684,-1.7682,-1.7682,-1.7677,-1.7675,-1.7672,-1.7672,-1.7672,0,-1.7909,-1.79,-1.7877,-1.7868,-1.7858,-1.7844,-1.7834,-1.7817,-1.7807,-1.7786,-1.7779,-1.7762,-1.7747,-1.7721,-1.7704,-1.7687,-1.7682,-1.7681,-1.7679,-1.7684,-1.7681,-1.7682,-1.7681,-1.7682,-1.7682,-1.7682,-1.7682,0,-1.7911,-1.7903,-1.7889,-1.7872,-1.786,-1.7846,-1.7831,-1.7825,-1.7805,-1.7794,-1.7778,-1.7766,-1.7744,-1.7726,-1.7707,-1.7695,-1.7685,-1.7683,-1.7681,-1.7686,-1.7692,-1.7688,-1.7688,-1.7683,-1.7683,-1.7683,-1.7683,-1.7683,-1.7915,-1.7907,-1.7889,-1.7873,-1.786,-1.7847,-1.7837,-1.7823,-1.7809,-1.779,-1.778,-1.7764,-1.7745,-1.7719,-1.7707,-1.7693,-1.769,-1.7688,-1.7687,-1.7687,-1.7688,-1.7695,-1.769,-1.769,-1.769,-1.769,-1.769,0,-1.7916,-1.7904,-1.789,-1.787,-1.7857,-1.785,-1.7833,-1.7823,-1.7808,-1.7793,-1.7778,-1.7759,-1.7742,-1.7724,-1.7706,-1.7699,-1.7694,-1.7694,-1.7695,-1.7692,-1.7692,-1.7695,-1.7699,-1.7699,-1.7699,-1.7699,-1.7699,-1.7699,-1.7915,-1.7901,-1.7891,-1.787,-1.7857,-1.7841,-1.7832,-1.7819,-1.7807,-1.7786,-1.7772,-1.776,-1.7743,-1.7724,-1.7708,-1.7703,-1.7697,-1.7699,-1.7693,-1.7693,-1.7692,-1.7691,-1.7694,-1.7698,-1.7698,-1.7694,-1.7694,-1.7694]},{"header":{"parameterUnit":"m.s-1","parameterCategory":1,"la1":30.2991,"la2":30.254,"lo1":-89.0895,"lo2":-89.0444,"dy":0.0017,"dx":0.0017,"nx":28,"ny":28,"refTime":"2025-03-22T03:00:00:Z","depth":0,"parameterNumber":3,"parameterNumberName":"V-component_of_WINDS"},"data":[0,0,0,0,0,0,0,0,0,0,0,0,0,0,0,0,0,0,0,0,0,0,0,0,0,0,0,0,0,0,0,0,0,0,0,0,0,0,0,0,0,0,0,0,0,0,0,0,0,0,0,0,0,0,0,0,0,0,5.219,5.2191,0,5.2287,5.2288,5.2289,5.2266,5.2264,5.2262,5.2261,5.2353,5.2357,5.2361,0,0,0,0,0,0,0,0,0,0,0,0,0,5.1981,5.1985,5.219,5.2191,5.2192,5.2286,5.2288,5.2289,5.2266,5.2264,5.2262,5.226,5.2352,5.2357,5.2362,0,0,0,0,0,0,0,0,0,0,0,0,0,5.2074,5.1986,5.219,5.2193,5.2194,5.2286,5.2288,5.2289,5.2267,5.2264,5.2261,5.2259,5.235,5.2356,5.2362,5.2456,0,0,5.2381,5.2384,0,0,0,0,0,0,0,0,5.2069,5.2081,5.2191,5.2193,5.2194,5.2262,5.2248,5.2345,5.2268,5.2239,5.2261,5.2258,5.2324,5.2333,5.2357,5.246,5.2464,5.2382,5.2386,5.2388,5.239,0,0,0,0,0,0,0,5.2062,5.2077,5.2228,5.2193,5.2195,5.2187,5.2198,5.2266,5.2296,5.2241,5.224,5.2252,5.2325,5.2351,5.2359,5.2465,5.2382,5.2387,5.2391,5.2394,5.2651,5.2654,0,0,0,0,0,0,5.2055,5.2072,5.2225,5.2231,5.2124,5.2193,5.2205,5.2243,5.2295,5.23,5.2254,5.2251,5.2341,5.2351,5.2362,5.2475,5.2388,5.2394,5.2398,5.2648,5.2652,5.2655,0,0,0,0,0,0,5.2051,5.2069,5.2221,5.2151,5.217,5.22,5.2243,5.2246,5.2272,5.2305,5.2309,5.2276,5.234,5.2353,5.2433,5.2478,5.2397,5.2403,5.2644,5.2649,5.2653,5.2702,0,0,0,0,0,0,5.2045,5.2068,5.2105,5.2152,5.2174,5.2293,5.2245,5.225,5.2283,5.228,5.2326,5.2331,5.2338,5.2424,5.2439,5.2485,5.2408,5.264,5.2646,5.2652,5.2697,5.2708,5.2718,0,0,0,0,0,5.2038,5.2113,5.2107,5.2125,5.2221,5.2295,5.2307,5.2316,5.2287,5.2324,5.2345,5.233,5.2471,5.2432,5.245,5.2498,5.2638,5.2645,5.2652,5.2692,5.2706,5.2718,0,0,0,0,0,0,5.2067,5.2119,5.2113,5.2206,5.2247,5.2291,5.2338,5.233,5.2378,5.2372,5.2379,5.239,5.2472,5.2493,5.2449,5.2591,5.255,5.256,5.2575,5.2588,5.2598,5.2592,5.2413,0,0,0,0,0,5.2085,5.2143,5.2184,5.2262,5.2283,5.2307,5.234,5.2344,5.2385,5.2401,5.2428,5.2468,5.2521,5.2556,5.2606,5.27,5.271,5.2742,5.2752,5.2761,5.2769,5.2821,5.2836,5.2678,5.2678,5.2678,0,0,5.2121,5.2157,5.2192,5.2269,5.2301,5.236,5.2322,5.2385,5.2428,5.241,5.2489,5.251,5.2554,5.2642,5.2682,5.2661,5.2816,5.2769,5.2776,5.278,5.283,5.2845,5.2858,5.2683,5.2682,5.2681,0,0,5.2217,5.225,5.232,5.2353,5.2403,5.2419,5.2436,5.2482,5.2497,5.2576,5.2564,5.2615,5.2706,5.2739,5.2767,5.2878,5.2865,5.2894,5.2948,5.2998,5.3011,5.3022,5.3062,5.3076,5.2903,5.2903,5.2903,0,5.2255,5.2345,5.2356,5.2421,5.2455,5.2445,5.2515,5.2546,5.2609,5.2632,5.2609,5.2725,5.2754,5.2849,5.2877,5.29,5.2918,5.2888,5.3009,5.302,5.303,5.3068,5.3083,5.2906,5.2906,5.2905,5.2905,0,5.239,5.2452,5.2502,5.2566,5.2606,5.2673,5.2692,5.2731,5.2731,5.2749,5.283,5.2865,5.2923,5.2946,5.2945,5.3042,5.3028,5.3007,5.2965,5.3048,5.3084,5.3099,5.2911,5.2909,5.2908,5.2908,0,0,5.2506,5.2577,5.2595,5.2625,5.268,5.2728,5.2794,5.2853,5.2886,5.293,5.2986,5.3064,5.3046,5.3078,5.3082,5.3126,5.3212,5.31,5.3101,5.312,5.3321,5.3336,5.3353,5.3205,5.3207,5.321,5.3317,0,5.2608,5.2727,5.274,5.2846,5.2904,5.2895,5.2953,5.2992,5.3011,5.3061,5.308,5.3137,5.3108,5.3127,5.3171,5.3193,5.3253,5.3185,5.3255,5.3257,5.3244,5.3372,5.3388,5.3488,5.3331,5.3333,5.3335,0,5.2742,5.2793,5.2906,5.2955,5.2979,5.3031,5.3087,5.3136,5.318,5.319,5.3228,5.3226,5.3293,5.325,5.3342,5.3295,5.3325,5.334,5.3344,5.335,5.3301,5.3382,5.352,5.3535,5.3357,5.3355,5.3354,0,5.2816,5.2913,5.2993,5.3019,5.3077,5.3114,5.314,5.3182,5.3217,5.3265,5.3288,5.3343,5.3373,5.3414,5.3427,5.3394,5.3519,5.3476,5.3528,5.3528,5.3555,5.3553,5.3699,5.3574,5.3573,5.3573,5.3573,0,5.2928,5.2998,5.3028,5.3077,5.3155,5.3168,5.3243,5.3267,5.3304,5.3357,5.3352,5.3401,5.3415,5.3466,5.3476,5.3551,5.3564,5.3574,5.3576,5.3575,5.3573,5.3593,5.3587,5.3577,5.3576,5.3575,5.3575,0,5.3024,5.3047,5.3134,5.3184,5.3198,5.3253,5.3294,5.3341,5.3359,5.3426,5.3443,5.3471,5.3531,5.3548,5.362,5.3626,5.3715,5.371,5.3701,5.3701,5.3752,5.3747,5.3917,5.394,5.3799,5.38,5.3801,0,5.3094,5.3148,5.3204,5.3241,5.3269,5.3327,5.3364,5.3378,5.3417,5.3472,5.3512,5.3573,5.3622,5.3718,5.3744,5.3799,5.3795,5.3851,5.3803,5.3801,5.3796,5.3793,5.3799,5.386,5.3861,5.3862,5.3863,0,5.3216,5.3226,5.3281,5.334,5.3385,5.3432,5.3476,5.3506,5.3527,5.357,5.3633,5.3672,5.3746,5.3806,5.3862,5.3886,5.3878,5.3879,5.3894,5.3893,5.3886,5.3891,5.3725,5.3874,5.3873,5.3872,5.3872,5.3871,5.3302,5.335,5.3398,5.3459,5.3495,5.3537,5.3585,5.361,5.3664,5.3728,5.3732,5.3801,5.3844,5.3919,5.3946,5.3999,5.3982,5.4004,5.4009,5.4015,5.4019,5.3878,5.4009,5.4009,5.4008,5.4008,5.4008,0,5.3424,5.3455,5.3512,5.3576,5.3624,5.3616,5.3665,5.3705,5.3767,5.3809,5.3858,5.3931,5.3989,5.402,5.4078,5.4114,5.4112,5.4129,5.4126,5.4132,5.4031,5.4012,5.4129,5.4129,5.4129,5.4129,5.4129,5.4129,5.3494,5.3575,5.359,5.3688,5.3718,5.3787,5.3816,5.3855,5.3889,5.3972,5.4021,5.4042,5.408,5.414,5.4193,5.42,5.4222,5.4241,5.4246,5.4151,5.4139,5.4127,5.4109,5.4245,5.4245,5.4343,5.4344,5.4345]}]]